Probability
0 0 0 0 0 0 0 0 0 0 0 0 0 0 0 0 0 3 3 0 0 0 0 0 0 0 0 0 0 0 0 0 0 0 0 0 0 0 0 0 0 0 0 0
0 0 0 0 0 0 0 0 0 0 0 0 0 0 0 0 0 0 0 0 0 0 0 0 0 0 0 0 0 0 0 0 0 0 0 0 0 0 0 0 0 0 0 0
0 0 0 0 0 0 0 0 0 0 0 0 0 0 0 0 0 0 0 0 0 0 0 0 0 0 0 0 0 0 0 0 0 0 0 0 0 0 0 0 0 0 0 0
0 0 0 0 0 0 0 0 0 0 0 0 0 0 0 0 0 0 0 0 0 0 0 0 0 0 0 0 0 0 0 0 0 0 0 0 0 0 0 0 0 0 0 0
0 0 0 0 0 0 0 0 0 0 0 0 0 0 0 0 0 0 0 0 0 0 0 0 0 0 0 0 0 0 0 0 0 0 0 0 0 0 0 0 0 0 0 0
0 0 0 0 0 0 0 0 0 0 0 0 0 0 0 0 0 0 0 0 0 0 0 0 0 0 0 0 0 0 0 0 0 0 0 0 0 0 0 0 0 0 0 0
0 0 0 0 0 0 0 0 0 0 0 0 0 0 0 0 0 0 0 0 0 0 0 0 0 0 0 0 0 0 0 0 0 0 0 0 0 0 0 0 0 0 0 0
0 0 0 0 0 0 0 0 0 0 0 0 0 0 0 0 0 0 0 0 0 0 0 0 0 0 0 0 0 0 3 3 0 0 0 0 0 0 0 0 0 0 0 0
0 0 0 0 0 0 0 0 0 0 0 0 0 0 0 0 0 0 0 0 0 0 0 0 0 0 0 0 0 0 0 3 3 0 0 0 0 0 0 0 0 0 0 0
0 0 0 0 0 0 0 0 0 0 0 0 0 0 0 0 0 0 0 0 0 0 0 0 0 0 0 0 0 0 0 0 0 3 0 0 0 0 0 0 0 0 0 0
0 0 0 0 0 0 0 0 0 0 0 0 0 0 0 0 0 0 0 0 0 0 0 0 0 0 0 0 0 0 0 0 0 0 0 0 0 0 0 0 0 0 0 0
0 0 0 0 0 0 0 0 0 0 0 0 0 0 0 0 0 0 0 0 0 0 0 0 0 0 0 0 0 0 0 0 0 0 0 0 0 0 0 0 0 0 0 0
0 0 0 0 0 0 0 0 0 0 0 0 0 0 0 0 0 0 0 0 0 0 0 0 0 0 0 0 0 0 0 0 0 0 0 0 0 0 0 0 0 0 0 0
0 0 0 0 0 0 0 0 0 0 0 0 0 0 0 0 0 0 0 0 0 0 0 0 0 0 0 0 0 0 0 0 0 0 0 0 0 0 0 0 0 0 0 0
0 0 0 0 0 0 0 0 0 0 0 0 0 0 0 0 0 0 0 0 0 0 0 0 0 0 0 0 0 0 0 0 0 0 0 0 0 0 0 0 0 0 0 0
0 0 0 0 0 0 0 0 0 0 0 0 0 0 0 0 0 0 0 0 0 0 0 0 0 0 0 0 0 0 0 0 0 0 0 0 0 0 0 0 0 0 0 0
0 0 0 0 0 0 0 0 0 0 0 0 0 0 0 0 0 0 0 0 0 0 0 0 0 0 0 0 0 0 0 0 0 0 0 0 0 0 0 0 0 0 0 0
0 0 0 0 0 0 0 0 0 0 0 0 0 0 0 0 0 0 0 0 0 0 0 0 0 0 0 0 0 0 0 0 0 0 0 0 0 0 0 0 0 0 0 0
0 0 0 0 0 0 0 0 0 0 0 0 0 0 0 0 0 0 0 0 0 0 0 0 0 0 0 0 0 0 0 0 0 0 0 0 0 0 0 0 0 0 0 0
0 0 0 0 0 0 0 0 0 0 0 0 0 0 0 0 0 0 0 0 0 0 0 0 0 0 0 0 0 0 0 0 0 0 0 0 0 0 0 0 0 0 0 0
0 0 0 0 0 0 0 0 0 0 0 0 0 0 0 0 0 0 0 0 0 0 0 0 0 0 0 0 0 0 0 0 0 0 0 0 0 0 0 0 0 0 0 0
0 0 0 0 0 0 0 0 0 0 0 0 0 0 0 0 0 0 0 0 0 0 0 0 0 0 0 0 0 0 0 0 0 0 0 0 0 0 0 0 0 0 0 0
0 0 0 0 0 0 0 0 0 0 0 0 0 0 0 0 0 0 0 0 0 0 0 0 0 0 0 0 0 0 0 0 0 0 0 0 0 0 0 0 0 0 0 0
0 0 0 0 0 0 0 0 0 0 0 0 0 0 0 0 0 0 0 0 0 0 0 0 0 0 0 0 0 0 0 0 0 0 0 0 0 0 0 0 0 0 0 0
0 0 0 0 0 0 0 0 0 0 0 0 0 0 0 0 0 0 0 0 0 0 0 0 0 0 0 0 0 0 0 0 0 0 0 0 0 0 0 0 0 0 0 0
0 0 0 0 0 0 0 0 0 0 0 0 0 0 0 0 0 0 0 0 0 0 0 0 0 0 0 0 0 0 0 0 0 0 0 0 0 0 0 0 0 0 0 0
Height
5679 5680 5682 5685 5687 5688 5689 5689 5691 5693 5693 5693 5694 5696 5698 5699 5700 5702 5704 5706 5708 5711 5714 5716 5718 5720 5723 5726 5728 5731 5734 5737 5740 5743 5747 5750 5754 5758 5761 5764 5768 5771 5774 5777
5668 5671 5676 5677 5678 5679 5680 5682 5684 5686 5686 5686 5687 5689 5692 5692 5694 5696 5698 5700 5703 5705 5708 5711 5713 5716 5718 5721 5723 5726 5729 5732 5735 5739 5742 5745 5748 5752 5756 5759 5762 5765 5768 5771
5657 5664 5666 5667 5668 5670 5672 5675 5677 5678 5678 5679 5680 5682 5685 5686 5688 5690 5692 5695 5697 5700 5703 5706 5708 5711 5714 5716 5719 5721 5724 5727 5730 5734 5737 5740 5743 5746 5750 5753 5756 5759 5762 5764
5647 5653 5654 5656 5659 5662 5664 5668 5669 5670 5670 5671 5673 5673 5679 5680 5682 5685 5687 5689 5692 5695 5698 5701 5704 5706 5709 5711 5713 5716 5719 5722 5725 5728 5731 5734 5737 5740 5743 5746 5749 5752 5755 5758
5637 5642 5644 5647 5652 5654 5657 5659 5661 5662 5662 5663 5665 5666 5672 5674 5676 5680 5682 5685 5687 5690 5693 5696 5698 5701 5703 5706 5708 5711 5714 5716 5719 5723 5726 5728 5731 5734 5737 5740 5742 5745 5748 5751
5628 5631 5633 5638 5642 5645 5647 5650 5652 5652 5652 5654 5660 5660 5663 5668 5671 5674 5677 5679 5682 5684 5687 5690 5692 5695 5697 5699 5702 5705 5708 5711 5713 5716 5719 5722 5724 5727 5730 5733 5736 5739 5741 5743
5616 5620 5623 5627 5631 5634 5637 5640 5642 5642 5643 5647 5653 5652 5657 5662 5665 5668 5670 5673 5676 5678 5681 5684 5687 5689 5691 5694 5696 5699 5702 5705 5708 5710 5713 5716 5718 5720 5723 5725 5728 5731 5733 5735
5606 5610 5614 5618 5621 5625 5628 5631 5635 5636 5637 5641 5644 5644 5651 5655 5658 5661 5663 5666 5669 5672 5675 5677 5680 5683 5685 5688 5690 5693 5696 5698 5701 5704 5707 5709 5711 5713 5715 5717 5720 5722 5724 5726
5596 5600 5605 5608 5613 5616 5618 5622 5627 5629 5630 5632 5634 5638 5643 5647 5650 5654 5656 5659 5662 5665 5668 5671 5673 5676 5678 5681 5684 5686 5689 5691 5694 5696 5699 5701 5703 5705 5707 5709 5711 5713 5715 5717
5585 5589 5594 5598 5602 5605 5610 5614 5617 5619 5621 5623 5627 5631 5636 5640 5643 5646 5649 5652 5655 5658 5661 5663 5666 5669 5671 5674 5677 5680 5682 5684 5687 5689 5692 5694 5696 5698 5699 5701 5703 5704 5706 5707
5575 5579 5583 5587 5591 5596 5601 5604 5607 5610 5613 5617 5620 5626 5628 5632 5636 5639 5642 5645 5647 5651 5653 5656 5659 5661 5664 5667 5670 5672 5675 5677 5680 5682 5684 5686 5688 5690 5691 5693 5694 5695 5697 5698
5565 5568 5572 5578 5583 5587 5590 5594 5598 5602 5605 5609 5612 5620 5620 5624 5627 5630 5634 5637 5640 5643 5645 5648 5651 5654 5656 5659 5662 5664 5667 5670 5672 5675 5676 5678 5680 5681 5683 5684 5685 5686 5687 5688
5555 5558 5562 5567 5573 5576 5579 5584 5588 5592 5596 5599 5604 5612 5613 5616 5619 5622 5626 5629 5632 5634 5637 5639 5642 5645 5648 5651 5654 5656 5659 5662 5664 5666 5668 5670 5671 5673 5674 5675 5676 5677 5677 5677
5544 5547 5552 5557 5562 5566 5570 5575 5579 5582 5585 5590 5595 5601 5604 5606 5610 5613 5617 5620 5623 5626 5628 5631 5634 5636 5639 5642 5645 5648 5650 5653 5655 5657 5659 5660 5662 5663 5664 5665 5665 5666 5666 5667
5533 5537 5541 5546 5551 5555 5559 5565 5569 5572 5576 5581 5587 5591 5595 5597 5600 5603 5607 5610 5614 5617 5620 5622 5625 5627 5630 5633 5636 5638 5641 5643 5646 5648 5649 5651 5652 5653 5653 5654 5654 5655 5655 5655
5524 5527 5531 5536 5541 5543 5547 5553 5558 5563 5567 5571 5575 5580 5585 5587 5590 5593 5597 5601 5604 5608 5610 5613 5615 5618 5621 5624 5626 5629 5631 5633 5635 5637 5639 5640 5641 5642 5642 5643 5643 5643 5643 5643
5515 5518 5522 5526 5531 5532 5536 5544 5548 5553 5557 5561 5564 5570 5573 5576 5580 5584 5587 5591 5594 5597 5600 5603 5606 5608 5611 5613 5616 5618 5620 5622 5624 5626 5628 5629 5629 5630 5630 5631 5631 5631 5630 5630
5507 5510 5513 5516 5521 5522 5531 5535 5538 5542 5546 5550 5553 5558 5562 5565 5569 5572 5576 5580 5583 5586 5589 5592 5595 5597 5600 5602 5605 5607 5609 5611 5613 5614 5616 5617 5617 5618 5618 5618 5618 5617 5617 5616
5499 5502 5505 5508 5510 5513 5521 5525 5528 5531 5535 5540 5543 5546 5550 5554 5557 5561 5565 5568 5572 5575 5578 5581 5584 5586 5589 5591 5593 5595 5597 5599 5601 5603 5604 5604 5605 5605 5605 5605 5604 5604 5603 5602
5492 5494 5498 5501 5503 5506 5513 5516 5518 5522 5525 5530 5532 5536 5539 5543 5547 5552 5554 5557 5561 5564 5567 5570 5573 5575 5578 5580 5582 5584 5585 5587 5589 5590 5591 5591 5592 5592 5592 5591 5590 5590 5589 5588
5485 5487 5491 5493 5496 5499 5504 5507 5510 5514 5518 5521 5523 5526 5530 5533 5537 5541 5543 5546 5549 5553 5556 5559 5561 5564 5566 5568 5570 5572 5573 5575 5576 5577 5578 5578 5579 5578 5578 5577 5577 5576 5575 5574
5478 5481 5484 5487 5489 5495 5496 5499 5502 5505 5508 5511 5514 5517 5520 5523 5526 5529 5532 5535 5538 5541 5544 5547 5550 5552 5554 5556 5558 5560 5561 5563 5564 5565 5565 5565 5565 5565 5564 5564 5563 5562 5561 5560
5473 5476 5478 5481 5485 5486 5488 5491 5493 5496 5499 5502 5505 5508 5511 5514 5516 5519 5522 5525 5528 5531 5533 5535 5538 5540 5542 5544 5546 5548 5549 5550 5551 5551 5552 5552 5552 5552 5551 5550 5550 5549 5547 5546
5467 5470 5472 5474 5477 5479 5481 5483 5485 5488 5491 5494 5497 5500 5502 5505 5508 5510 5513 5515 5518 5520 5522 5524 5527 5529 5531 5533 5534 5535 5536 5537 5538 5538 5539 5539 5539 5539 5538 5537 5536 5535 5533 5532
5461 5464 5466 5468 5470 5472 5475 5476 5478 5481 5483 5486 5488 5491 5494 5497 5499 5502 5504 5506 5508 5510 5512 5514 5515 5517 5519 5521 5522 5523 5524 5524 5525 5526 5526 5526 5526 5525 5525 5524 5523 5521 5520 5518
5456 5458 5461 5462 5464 5466 5468 5470 5472 5474 5476 5478 5481 5483 5485 5488 5491 5493 5495 5497 5499 5500 5502 5503 5504 5506 5507 5508 5510 5511 5511 5512 5513 5513 5513 5513 5513 5513 5512 5511 5510 5508 5506 5504
Wind_Speed
38 38 37 34 34 33 33 33 31 29 29 29 29 28 27 28 29 30 29 30 29 28 28 27 26 27 28 28 28 27 28 29 31 32 31 29 29 29 30 31 31 31 31 31
40 39 36 35 35 34 34 34 32 31 30 30 30 29 28 29 29 28 29 29 30 29 29 27 26 26 28 27 26 26 27 29 30 31 31 30 30 29 29 29 31 31 32 32
40 38 36 36 36 36 36 34 33 33 32 32 32 31 29 29 29 29 29 29 29 29 28 28 27 26 27 26 26 27 27 28 30 31 31 30 30 29 29 30 30 31 31 32
41 38 38 38 38 37 37 34 34 34 34 34 34 34 30 30 29 30 29 29 29 30 29 28 27 26 26 26 26 28 28 29 30 31 31 31 31 31 31 31 32 33 33 33
41 40 40 39 38 38 37 35 35 35 35 36 35 36 31 30 30 30 30 29 29 30 30 29 28 28 27 27 27 28 29 30 31 32 32 31 31 33 33 32 32 33 34 35
40 39 40 39 39 39 38 37 36 36 36 38 35 36 34 31 29 29 30 30 30 30 30 29 29 29 29 29 28 27 29 31 31 32 33 31 32 33 34 33 34 35 35 35
39 39 39 38 38 39 39 39 38 38 38 39 35 37 35 31 30 29 29 30 30 31 32 31 30 29 30 30 29 28 29 31 32 33 34 32 32 34 35 35 36 37 37 36
40 39 38 37 38 37 38 39 39 38 37 37 36 38 34 32 31 30 30 31 31 30 31 31 31 30 31 30 29 29 30 31 32 32 33 33 33 34 35 35 36 38 38 39
39 39 39 38 38 38 38 39 37 37 37 38 38 38 35 33 32 30 30 31 32 30 30 31 31 30 31 31 30 30 30 31 32 32 32 31 32 32 33 33 35 37 39 39
39 39 39 39 39 40 39 37 37 37 38 39 38 37 36 33 33 31 30 31 32 31 30 31 31 31 32 32 32 31 31 31 32 32 33 32 32 33 33 34 35 36 37 39
40 40 39 39 40 39 39 39 38 38 38 37 37 36 35 33 33 32 32 31 32 33 32 32 32 32 32 33 33 33 32 32 33 33 34 33 33 33 33 35 36 38 39 40
39 40 41 40 39 40 40 40 39 39 39 38 37 36 34 34 33 33 32 31 32 33 33 32 32 33 33 34 34 35 35 35 35 36 36 36 36 36 36 36 36 37 38 40
38 41 41 41 41 40 41 41 41 40 40 40 39 37 35 35 34 34 33 32 32 33 33 34 33 33 34 34 36 37 37 38 37 38 39 38 38 38 38 38 38 39 40 41
38 41 43 42 41 40 40 41 41 41 42 42 41 38 36 35 35 35 35 35 34 34 34 35 35 35 36 36 36 37 39 40 40 40 40 40 40 41 41 41 41 42 43 43
38 40 41 42 41 42 42 41 41 42 42 42 41 40 38 37 37 37 37 37 36 36 36 37 36 37 37 38 38 38 39 40 42 42 42 42 42 43 44 44 45 45 45 46
36 38 39 40 41 42 43 43 42 42 41 42 41 41 41 39 39 38 38 38 38 38 38 38 38 39 39 39 39 39 40 40 41 42 43 43 43 44 45 46 47 47 47 48
35 37 37 38 38 40 42 41 42 42 41 41 42 41 41 41 39 38 38 38 39 40 40 40 40 41 41 41 41 41 42 42 42 43 43 44 45 45 46 47 48 48 48 48
32 34 36 37 36 39 39 38 39 40 41 41 42 42 42 42 41 41 41 40 40 41 41 41 42 42 42 42 42 43 43 43 43 44 44 45 45 46 46 47 48 48 49 49
30 30 33 34 35 36 36 37 38 39 39 39 40 42 43 43 42 42 41 42 42 42 42 41 42 42 43 43 43 44 44 45 45 45 45 45 46 46 47 48 49 50 50 50
27 28 30 31 31 30 31 31 33 36 37 35 36 38 39 41 42 41 41 41 42 42 42 42 42 42 43 43 43 43 44 45 45 46 46 47 47 48 48 49 50 50 50 50
25 26 28 29 30 29 29 28 30 33 34 34 34 34 36 38 39 39 40 40 40 41 41 41 42 42 43 43 44 44 44 44 45 46 47 48 48 48 49 49 49 49 49 49
23 24 25 27 29 29 29 29 29 30 31 32 32 32 33 34 35 36 37 38 38 39 39 40 41 41 41 42 43 44 44 45 45 46 47 47 48 48 48 48 48 48 49 49
21 22 23 25 27 28 28 28 29 29 30 30 30 31 32 32 34 35 36 37 37 37 37 38 39 39 40 41 42 44 44 44 44 45 45 46 46 46 46 46 47 47 48 49
21 21 22 24 25 25 26 26 27 28 29 30 30 30 31 31 32 33 34 34 35 35 35 36 37 39 40 41 42 43 44 44 43 43 44 44 45 45 45 45 46 47 47 48
21 22 23 24 24 24 24 24 25 27 28 28 29 30 30 30 30 30 30 31 32 33 34 35 36 38 39 40 40 41 41 42 43 43 43 44 44 44 44 45 45 46 46 47
20 20 21 22 22 23 23 23 23 24 26 26 27 28 29 29 30 30 30 31 31 32 33 35 36 37 38 38 39 40 41 42 42 42 43 43 43 43 44 44 45 45 46 47
Wind_Direction
259 258 258 260 260 260 259 258 259 259 260 259 259 257 255 253 249 247 246 244 240 238 240 241 240 238 237 236 236 235 235 235 235 233 233 235 236 236 236 235 236 240 242 242
258 258 258 257 256 255 255 256 257 259 259 258 258 256 255 253 250 249 246 245 243 239 240 241 241 240 239 238 237 235 235 235 234 234 235 239 239 238 238 238 240 242 244 245
258 258 256 254 253 253 253 255 257 259 258 257 258 256 254 251 248 247 246 244 244 241 239 240 241 241 239 240 239 236 236 236 234 234 238 240 241 240 239 239 240 242 245 246
256 254 253 252 252 252 253 254 257 256 256 256 257 258 252 251 247 245 245 244 243 241 239 240 240 241 239 237 236 236 237 238 237 237 239 242 242 241 240 241 243 245 247 250
255 253 252 252 251 250 252 253 255 253 255 256 255 258 253 251 248 245 246 245 243 242 241 241 241 241 241 238 236 238 239 239 237 238 240 245 246 243 242 243 245 248 251 252
253 252 251 251 250 250 251 251 252 253 254 254 253 257 256 251 249 247 246 246 244 243 241 241 243 242 240 238 237 239 240 240 239 240 242 247 247 245 244 246 248 250 251 253
250 249 250 249 249 247 247 247 250 252 252 253 254 255 256 254 251 249 248 247 245 244 241 241 242 243 242 240 239 240 242 242 241 242 243 248 250 248 247 249 250 251 252 254
249 247 246 247 247 247 246 246 249 252 254 254 254 255 255 254 252 250 249 248 246 244 242 242 243 243 241 242 242 243 243 244 243 245 245 248 251 250 249 251 253 253 255 255
250 249 245 245 246 246 246 246 247 251 253 255 254 256 255 254 252 250 250 249 248 247 245 244 246 245 242 241 243 245 245 244 244 246 249 253 252 251 252 254 254 255 256 256
249 247 245 243 243 245 246 248 247 248 251 253 255 256 256 255 253 251 249 249 249 249 248 247 246 246 243 242 243 246 246 246 246 247 251 254 253 254 255 255 255 255 256 258
247 246 245 244 242 243 243 244 245 248 250 251 255 256 257 257 253 252 250 250 250 250 250 249 248 248 245 243 245 247 247 248 248 247 249 252 255 258 259 258 258 258 259 262
245 245 246 246 245 244 243 243 244 246 248 249 252 254 254 255 254 254 253 251 252 251 252 252 250 248 247 244 245 247 248 248 248 249 250 254 255 257 259 261 262 263 263 263
244 244 245 245 245 244 244 242 243 246 248 249 250 252 252 252 253 253 253 252 251 251 252 252 251 248 248 247 245 246 248 248 250 251 252 255 257 258 259 260 261 263 264 265
244 243 243 244 245 245 245 244 244 244 247 248 249 249 251 252 252 251 250 249 249 250 250 250 250 249 249 249 248 248 248 249 250 252 254 255 257 259 260 261 263 264 265 266
245 244 243 243 243 243 244 244 244 244 246 249 249 248 248 250 251 250 249 248 249 249 249 249 249 249 250 251 250 250 250 251 252 254 255 257 258 261 262 262 264 266 267 268
245 245 243 243 244 245 244 244 244 244 246 247 248 248 247 248 249 249 250 250 249 249 249 249 249 249 250 251 251 251 252 253 254 256 257 258 260 261 262 263 265 267 268 269
243 244 244 243 243 245 245 244 245 244 244 246 247 247 246 247 248 249 250 250 250 249 249 250 251 251 250 251 252 252 253 254 255 257 259 260 262 263 264 265 267 268 269 270
243 243 244 245 244 246 246 245 245 246 246 246 246 245 246 248 248 249 250 250 249 249 250 251 251 252 252 252 253 253 254 255 257 258 260 262 263 264 265 267 269 270 271 272
242 243 244 245 247 248 248 246 247 248 246 245 246 246 247 247 248 249 250 249 249 248 249 249 251 252 253 254 255 256 256 257 259 260 262 264 265 266 267 268 270 271 271 272
241 241 241 242 245 248 247 247 247 248 247 245 246 247 248 249 249 249 250 249 249 249 249 250 251 252 253 255 256 257 258 259 260 262 264 266 267 268 269 270 271 272 272 272
244 240 239 242 245 247 247 246 248 249 248 246 247 248 248 249 250 249 249 250 250 251 251 251 251 252 253 254 255 256 258 260 262 264 265 267 268 269 270 271 272 272 272 273
246 245 242 242 245 248 248 249 249 250 248 247 248 248 249 248 249 249 249 250 252 253 254 253 253 253 254 255 255 257 259 262 264 266 267 268 269 269 270 271 272 273 273 273
243 245 247 248 248 250 253 254 251 249 250 249 249 248 249 249 248 247 249 250 252 253 254 254 254 254 255 256 258 258 260 262 264 266 267 268 268 269 269 271 272 273 274 274
243 243 245 247 248 250 252 253 251 250 250 249 249 248 248 249 249 249 249 250 251 253 254 254 254 255 255 256 257 260 261 262 264 265 265 266 266 268 269 271 272 274 275 275
246 244 245 247 248 249 250 251 249 249 249 250 249 249 249 249 249 250 252 252 252 253 254 254 254 255 256 257 259 261 261 262 263 264 265 265 267 269 270 272 274 275 276 276
244 246 248 249 249 250 251 252 251 249 248 249 249 248 248 249 250 250 251 253 255 255 256 255 256 257 258 259 260 261 262 263 263 264 265 266 268 270 272 273 275 277 278 278